GEFSNE_prec_meanprecacc_336.txt.gz
Total_Precipitation_Accumulation
2.73 2.86 2.83 2.79 2.85 2.81 2.90 3.09 3.22 2.99 2.62 2.28 2.14 1.98 2.08 2.17 2.37 1.98 1.96 2.13 1.91 1.77 1.69 1.63 1.60 1.54 1.55 1.69 1.76 1.76 1.83 1.88 1.95 2.04 2.18 2.33 2.52 2.75
2.49 2.68 2.70 2.66 2.83 2.92 3.00 3.05 3.11 3.12 2.85 2.38 2.26 2.10 2.11 2.05 2.42 2.07 2.03 2.14 1.86 1.62 1.49 1.40 1.33 1.28 1.31 1.41 1.47 1.51 1.57 1.58 1.61 1.65 1.74 1.86 2.04 2.24
2.30 2.41 2.51 2.61 2.76 2.81 2.90 2.92 2.99 3.05 2.90 2.47 2.34 2.33 2.33 2.26 2.32 2.18 2.06 2.00 1.82 1.68 1.46 1.31 1.24 1.20 1.21 1.29 1.34 1.34 1.41 1.46 1.47 1.48 1.52 1.60 1.69 1.79
2.12 2.21 2.27 2.36 2.47 2.42 2.53 2.56 2.62 2.74 2.72 2.62 2.59 2.51 2.47 2.41 2.29 2.11 1.82 1.60 1.56 1.60 1.44 1.34 1.28 1.23 1.25 1.30 1.33 1.34 1.32 1.27 1.27 1.32 1.37 1.39 1.43 1.53
1.89 1.94 1.99 2.09 2.07 2.01 2.05 2.05 2.16 2.29 2.55 2.53 2.44 2.57 2.49 2.46 2.54 2.21 1.94 1.91 1.47 1.44 1.36 1.31 1.29 1.24 1.21 1.20 1.19 1.19 1.18 1.11 1.03 1.04 1.14 1.25 1.31 1.30
1.68 1.69 1.67 1.62 1.62 1.68 1.71 1.78 1.94 2.25 2.47 2.44 2.27 2.26 2.30 2.27 2.47 2.32 2.19 2.08 1.79 1.38 1.33 1.21 1.20 1.20 1.16 1.08 1.04 1.00 1.01 1.05 1.06 1.02 1.01 1.03 1.09 1.13
1.57 1.54 1.46 1.43 1.48 1.46 1.38 1.54 1.82 2.13 2.27 2.32 2.26 2.17 2.10 2.15 2.17 2.05 2.04 2.07 1.98 1.64 1.56 1.29 1.17 1.17 1.19 1.15 1.10 0.99 0.91 0.90 0.93 0.95 0.95 0.95 0.98 1.03
1.52 1.43 1.34 1.33 1.32 1.28 1.26 1.36 1.53 1.72 1.90 2.04 2.05 2.02 1.99 2.04 2.12 2.11 2.11 2.15 2.08 1.80 1.81 1.64 1.39 1.46 1.38 1.22 1.13 1.03 0.97 0.93 0.90 0.91 0.96 0.97 0.96 0.96
1.48 1.50 1.31 1.14 1.25 1.25 1.28 1.31 1.32 1.40 1.55 1.78 1.90 1.85 1.92 2.03 2.25 2.20 2.23 2.23 2.10 1.91 2.03 1.96 1.76 1.69 1.40 1.20 1.22 1.07 0.98 0.93 0.92 0.91 0.94 0.97 1.00 1.00
1.37 1.39 1.43 1.38 1.31 1.33 1.31 1.30 1.26 1.29 1.38 1.49 1.65 1.71 1.73 1.89 2.12 2.13 2.16 2.16 2.04 1.90 2.01 2.06 1.77 1.70 1.38 1.42 1.34 1.11 0.98 0.95 0.92 0.85 0.87 0.92 1.01 1.08
1.20 1.20 1.19 1.19 1.23 1.32 1.39 1.45 1.42 1.36 1.21 1.28 1.34 1.47 1.60 1.70 1.82 1.90 2.03 2.19 2.09 1.89 1.89 2.01 1.84 1.73 1.56 1.57 1.40 1.23 1.12 1.11 1.05 0.91 0.83 0.85 0.93 1.05
1.17 1.14 1.08 1.01 1.01 1.05 1.12 1.35 1.49 1.40 1.31 1.32 1.43 1.58 1.65 1.71 1.72 1.78 1.95 2.11 2.10 2.08 1.87 1.97 1.94 1.93 1.84 1.56 1.44 1.39 1.35 1.38 1.30 1.11 0.94 0.90 0.98 0.99
1.09 1.09 1.05 0.95 0.83 0.85 0.98 1.17 1.29 1.31 1.43 1.66 1.86 1.90 1.89 1.85 1.74 1.68 1.83 1.96 2.02 2.01 1.78 1.92 1.98 2.04 2.09 1.78 1.47 1.46 1.53 1.61 1.55 1.36 1.15 1.10 1.11 1.04
1.06 1.07 1.02 0.94 0.83 0.85 0.93 1.05 1.14 1.29 1.55 1.85 1.99 1.92 1.69 1.54 1.56 1.56 1.63 1.75 1.82 1.79 1.73 1.85 1.98 2.03 2.02 1.84 1.60 1.50 1.62 1.73 1.74 1.63 1.42 1.35 1.30 1.19
0.94 0.97 0.96 0.95 0.96 1.01 1.05 1.08 1.18 1.38 1.61 1.74 1.74 1.62 1.49 1.44 1.50 1.59 1.59 1.73 1.75 1.55 1.44 1.51 1.73 1.86 1.98 1.89 1.75 1.73 1.81 1.95 1.93 1.88 1.77 1.54 1.41 1.37
0.92 1.00 1.08 1.13 1.14 1.13 1.17 1.26 1.32 1.42 1.48 1.54 1.52 1.45 1.40 1.46 1.52 1.51 1.58 1.71 1.84 1.68 1.51 1.46 1.56 1.77 1.88 1.82 1.88 1.91 1.93 2.16 2.12 2.00 1.95 1.85 1.64 1.45
0.91 1.05 1.22 1.30 1.31 1.26 1.23 1.26 1.30 1.33 1.36 1.33 1.34 1.36 1.39 1.41 1.41 1.43 1.54 1.62 1.71 1.63 1.60 1.57 1.60 1.69 1.67 1.69 1.79 1.79 1.85 2.01 2.10 2.08 2.08 2.16 2.06 1.79
0.99 1.19 1.33 1.37 1.38 1.25 1.20 1.17 1.16 1.17 1.15 1.17 1.23 1.30 1.34 1.33 1.34 1.38 1.47 1.58 1.65 1.59 1.58 1.60 1.64 1.79 1.81 1.66 1.66 1.73 1.74 1.94 2.04 2.01 1.96 2.13 2.21 1.97
0.98 1.11 1.25 1.33 1.39 1.25 1.16 1.16 1.14 1.12 1.12 1.16 1.21 1.24 1.28 1.29 1.32 1.38 1.44 1.53 1.57 1.56 1.55 1.55 1.58 1.68 1.77 1.72 1.61 1.65 1.73 1.85 1.92 1.90 1.89 1.93 2.07 1.99
1.02 1.07 1.16 1.28 1.32 1.28 1.20 1.21 1.19 1.19 1.19 1.21 1.22 1.27 1.31 1.34 1.31 1.30 1.37 1.40 1.45 1.50 1.55 1.56 1.56 1.55 1.58 1.59 1.68 1.67 1.60 1.57 1.59 1.69 1.74 1.81 1.87 1.84
0.98 1.01 1.04 1.13 1.21 1.28 1.31 1.28 1.21 1.18 1.19 1.22 1.24 1.29 1.32 1.32 1.32 1.27 1.29 1.33 1.37 1.44 1.51 1.53 1.51 1.49 1.50 1.58 1.66 1.65 1.60 1.65 1.59 1.53 1.56 1.67 1.65 1.51
0.98 1.02 1.04 1.06 1.11 1.16 1.23 1.24 1.19 1.13 1.13 1.20 1.28 1.33 1.35 1.35 1.29 1.22 1.25 1.35 1.41 1.43 1.44 1.43 1.42 1.49 1.55 1.64 1.68 1.70 1.66 1.52 1.49 1.51 1.48 1.34 1.23 1.24
1.10 1.07 1.03 1.04 1.04 1.04 1.08 1.15 1.16 1.10 1.09 1.15 1.24 1.31 1.30 1.28 1.25 1.19 1.15 1.18 1.23 1.27 1.36 1.45 1.50 1.53 1.54 1.55 1.60 1.57 1.49 1.40 1.27 1.24 1.32 1.32 1.17 1.10

GEFSNE_prec_meanprecacc_342.txt.gz
Total_Precipitation_Accumulation
2.74 2.88 2.85 2.82 2.88 2.84 2.93 3.13 3.26 3.03 2.65 2.31 2.17 2.01 2.09 2.19 2.39 2.01 1.99 2.16 1.93 1.78 1.70 1.66 1.63 1.58 1.64 1.82 1.86 1.86 1.93 1.99 2.07 2.16 2.30 2.44 2.63 2.86
2.51 2.71 2.73 2.69 2.86 2.94 3.03 3.08 3.14 3.16 2.89 2.40 2.28 2.11 2.12 2.06 2.44 2.09 2.06 2.16 1.88 1.63 1.50 1.41 1.36 1.31 1.37 1.53 1.57 1.61 1.66 1.66 1.69 1.73 1.85 1.96 2.13 2.33
2.31 2.42 2.53 2.63 2.79 2.84 2.92 2.94 3.01 3.07 2.93 2.49 2.35 2.34 2.34 2.28 2.34 2.21 2.09 2.01 1.84 1.69 1.46 1.32 1.27 1.22 1.25 1.37 1.41 1.41 1.49 1.53 1.55 1.55 1.60 1.68 1.77 1.87
2.13 2.22 2.28 2.37 2.49 2.45 2.56 2.59 2.64 2.76 2.75 2.65 2.61 2.52 2.49 2.43 2.32 2.14 1.84 1.61 1.57 1.60 1.44 1.35 1.29 1.25 1.28 1.36 1.38 1.39 1.38 1.36 1.36 1.39 1.44 1.44 1.48 1.58
1.91 1.95 2.01 2.10 2.09 2.04 2.08 2.09 2.19 2.31 2.58 2.56 2.47 2.59 2.51 2.48 2.58 2.24 1.97 1.94 1.48 1.44 1.36 1.32 1.30 1.26 1.24 1.25 1.24 1.23 1.22 1.16 1.11 1.13 1.22 1.31 1.35 1.33
1.70 1.71 1.68 1.64 1.64 1.70 1.73 1.81 1.97 2.28 2.51 2.48 2.30 2.29 2.32 2.29 2.53 2.39 2.25 2.13 1.82 1.39 1.33 1.22 1.22 1.22 1.19 1.13 1.08 1.04 1.04 1.08 1.10 1.08 1.09 1.11 1.14 1.16
1.60 1.56 1.47 1.45 1.49 1.47 1.39 1.57 1.85 2.17 2.32 2.36 2.29 2.19 2.13 2.18 2.23 2.12 2.10 2.13 2.02 1.66 1.58 1.32 1.19 1.20 1.23 1.20 1.14 1.03 0.93 0.91 0.96 0.99 1.01 1.02 1.04 1.07
1.56 1.46 1.36 1.35 1.33 1.29 1.26 1.37 1.55 1.76 1.94 2.08 2.08 2.05 2.02 2.07 2.17 2.17 2.19 2.25 2.14 1.85 1.84 1.67 1.41 1.48 1.41 1.26 1.17 1.07 1.00 0.95 0.92 0.94 1.00 1.02 1.01 1.00
1.52 1.53 1.33 1.16 1.28 1.27 1.31 1.34 1.35 1.43 1.59 1.82 1.94 1.88 1.95 2.07 2.29 2.25 2.30 2.33 2.18 1.97 2.07 1.99 1.79 1.72 1.43 1.24 1.26 1.09 1.00 0.95 0.94 0.93 0.96 0.99 1.03 1.04
1.40 1.42 1.47 1.42 1.34 1.36 1.34 1.33 1.29 1.32 1.42 1.51 1.68 1.74 1.76 1.92 2.16 2.18 2.24 2.27 2.14 1.97 2.06 2.10 1.81 1.73 1.41 1.46 1.38 1.13 1.00 0.96 0.93 0.86 0.88 0.93 1.03 1.10
1.24 1.24 1.22 1.22 1.25 1.34 1.41 1.48 1.46 1.40 1.24 1.30 1.37 1.50 1.64 1.76 1.89 1.99 2.14 2.33 2.25 2.03 1.98 2.08 1.89 1.78 1.60 1.61 1.44 1.26 1.16 1.14 1.06 0.92 0.84 0.87 0.95 1.07
1.20 1.17 1.11 1.03 1.04 1.06 1.14 1.39 1.54 1.46 1.35 1.36 1.48 1.63 1.73 1.80 1.82 1.88 2.07 2.24 2.26 2.25 1.99 2.04 1.99 1.98 1.90 1.62 1.49 1.42 1.38 1.42 1.33 1.13 0.96 0.93 1.01 1.02
1.12 1.11 1.07 0.96 0.84 0.86 1.00 1.20 1.34 1.36 1.48 1.72 1.92 1.96 1.95 1.92 1.81 1.76 1.93 2.07 2.15 2.17 1.90 1.98 2.03 2.10 2.15 1.85 1.52 1.50 1.56 1.64 1.58 1.38 1.17 1.11 1.13 1.07
1.08 1.09 1.04 0.96 0.84 0.86 0.94 1.08 1.17 1.31 1.57 1.88 2.02 1.96 1.73 1.57 1.60 1.62 1.71 1.84 1.91 1.90 1.84 1.91 2.02 2.08 2.09 1.89 1.65 1.55 1.66 1.77 1.76 1.65 1.44 1.37 1.31 1.20
0.96 1.00 0.98 0.98 0.98 1.03 1.07 1.11 1.19 1.39 1.63 1.76 1.76 1.64 1.51 1.46 1.52 1.63 1.64 1.79 1.83 1.64 1.55 1.58 1.77 1.91 2.05 1.96 1.80 1.77 1.86 2.00 1.96 1.90 1.79 1.57 1.43 1.38
0.95 1.03 1.11 1.16 1.16 1.15 1.20 1.28 1.34 1.44 1.49 1.56 1.53 1.47 1.42 1.48 1.54 1.54 1.63 1.76 1.91 1.77 1.60 1.53 1.61 1.83 1.95 1.89 1.93 1.95 1.97 2.20 2.16 2.03 1.97 1.88 1.66 1.46
0.94 1.08 1.25 1.33 1.33 1.28 1.25 1.28 1.32 1.35 1.38 1.35 1.36 1.38 1.41 1.43 1.43 1.45 1.59 1.67 1.78 1.72 1.67 1.64 1.65 1.73 1.72 1.75 1.85 1.84 1.91 2.06 2.14 2.11 2.11 2.18 2.09 1.81
1.01 1.21 1.35 1.39 1.40 1.27 1.23 1.19 1.18 1.19 1.17 1.19 1.25 1.32 1.36 1.35 1.36 1.40 1.50 1.63 1.71 1.66 1.65 1.66 1.69 1.84 1.86 1.72 1.73 1.80 1.80 2.00 2.10 2.06 2.01 2.16 2.24 1.99
1.00 1.13 1.27 1.35 1.42 1.27 1.19 1.20 1.17 1.15 1.15 1.19 1.23 1.26 1.29 1.31 1.34 1.40 1.46 1.56 1.63 1.62 1.60 1.61 1.64 1.72 1.81 1.77 1.68 1.71 1.81 1.92 1.99 1.96 1.94 1.97 2.10 2.01
1.04 1.10 1.18 1.29 1.34 1.30 1.23 1.24 1.22 1.22 1.22 1.25 1.25 1.28 1.33 1.36 1.33 1.32 1.39 1.43 1.49 1.57 1.61 1.61 1.61 1.60 1.62 1.63 1.75 1.75 1.67 1.62 1.65 1.74 1.80 1.86 1.91 1.87
1.01 1.02 1.06 1.15 1.24 1.31 1.34 1.31 1.24 1.21 1.23 1.26 1.27 1.31 1.34 1.34 1.34 1.29 1.31 1.35 1.40 1.49 1.59 1.59 1.57 1.54 1.55 1.64 1.72 1.73 1.67 1.71 1.66 1.60 1.63 1.74 1.71 1.55
1.00 1.04 1.06 1.09 1.14 1.19 1.27 1.27 1.22 1.16 1.16 1.23 1.31 1.35 1.37 1.37 1.31 1.24 1.27 1.37 1.43 1.46 1.50 1.48 1.46 1.53 1.59 1.69 1.73 1.75 1.71 1.58 1.55 1.57 1.53 1.39 1.27 1.27
1.13 1.09 1.06 1.08 1.08 1.08 1.12 1.18 1.19 1.13 1.12 1.17 1.27 1.33 1.32 1.30 1.27 1.21 1.17 1.20 1.25 1.30 1.40 1.51 1.54 1.57 1.57 1.59 1.64 1.63 1.54 1.45 1.32 1.28 1.36 1.36 1.21 1.14

GEFSNE_prec_meanprecacc_348.txt.gz
Total_Precipitation_Accumulation
2.77 2.91 2.89 2.85 2.92 2.87 2.96 3.16 3.32 3.09 2.71 2.38 2.23 2.06 2.14 2.23 2.43 2.04 2.02 2.20 1.98 1.83 1.75 1.70 1.66 1.60 1.66 1.85 1.90 1.92 2.02 2.11 2.20 2.30 2.43 2.59 2.78 3.02
2.55 2.75 2.77 2.71 2.88 2.97 3.05 3.10 3.17 3.21 2.94 2.44 2.33 2.16 2.17 2.10 2.48 2.11 2.08 2.18 1.91 1.66 1.53 1.45 1.39 1.34 1.39 1.54 1.58 1.64 1.70 1.73 1.78 1.85 1.98 2.11 2.28 2.47
2.36 2.46 2.56 2.66 2.83 2.87 2.94 2.96 3.04 3.10 2.97 2.53 2.40 2.39 2.38 2.31 2.37 2.23 2.11 2.03 1.85 1.70 1.48 1.34 1.29 1.24 1.26 1.38 1.41 1.42 1.50 1.56 1.59 1.62 1.71 1.81 1.91 2.01
2.20 2.28 2.32 2.42 2.55 2.50 2.60 2.62 2.68 2.80 2.80 2.70 2.66 2.56 2.52 2.46 2.35 2.17 1.86 1.63 1.58 1.61 1.45 1.36 1.31 1.27 1.29 1.36 1.38 1.39 1.39 1.37 1.38 1.42 1.50 1.55 1.61 1.72
1.96 2.00 2.06 2.17 2.16 2.10 2.12 2.13 2.24 2.35 2.63 2.63 2.52 2.63 2.54 2.51 2.61 2.27 1.99 1.97 1.49 1.46 1.38 1.33 1.32 1.28 1.25 1.26 1.24 1.23 1.23 1.17 1.11 1.14 1.24 1.35 1.42 1.42
1.74 1.74 1.72 1.69 1.71 1.77 1.78 1.86 2.02 2.33 2.58 2.55 2.36 2.33 2.35 2.32 2.57 2.42 2.29 2.17 1.85 1.40 1.35 1.25 1.25 1.25 1.21 1.14 1.09 1.04 1.04 1.08 1.11 1.09 1.10 1.13 1.18 1.21
1.63 1.59 1.51 1.50 1.55 1.52 1.43 1.61 1.90 2.22 2.38 2.42 2.34 2.23 2.16 2.22 2.27 2.16 2.14 2.18 2.07 1.70 1.61 1.36 1.24 1.24 1.27 1.22 1.15 1.03 0.94 0.92 0.96 1.00 1.02 1.04 1.07 1.12
1.60 1.49 1.41 1.40 1.36 1.31 1.28 1.39 1.58 1.79 1.99 2.14 2.13 2.10 2.07 2.10 2.20 2.20 2.24 2.31 2.19 1.89 1.88 1.72 1.47 1.54 1.47 1.30 1.20 1.08 1.01 0.96 0.93 0.95 1.01 1.05 1.03 1.04
1.56 1.57 1.35 1.18 1.30 1.29 1.32 1.35 1.36 1.45 1.62 1.86 1.99 1.93 2.00 2.10 2.33 2.30 2.35 2.38 2.23 2.01 2.11 2.04 1.86 1.80 1.51 1.31 1.31 1.12 1.01 0.97 0.95 0.95 0.98 1.03 1.07 1.07
1.44 1.46 1.50 1.45 1.37 1.39 1.37 1.35 1.31 1.34 1.44 1.53 1.72 1.78 1.78 1.95 2.20 2.23 2.28 2.31 2.21 2.04 2.13 2.16 1.89 1.82 1.51 1.55 1.46 1.18 1.03 0.99 0.95 0.89 0.91 0.97 1.06 1.13
1.27 1.26 1.25 1.25 1.28 1.36 1.44 1.51 1.47 1.41 1.26 1.32 1.39 1.52 1.65 1.77 1.91 2.01 2.18 2.40 2.35 2.13 2.07 2.16 1.98 1.88 1.70 1.69 1.51 1.31 1.19 1.17 1.09 0.94 0.86 0.88 0.97 1.08
1.24 1.20 1.13 1.05 1.05 1.07 1.16 1.42 1.56 1.48 1.37 1.39 1.50 1.64 1.74 1.82 1.83 1.89 2.09 2.30 2.33 2.33 2.06 2.11 2.06 2.05 1.97 1.67 1.52 1.45 1.40 1.44 1.35 1.15 0.97 0.94 1.02 1.03
1.15 1.14 1.10 0.98 0.85 0.87 1.00 1.22 1.36 1.39 1.50 1.74 1.95 1.98 1.97 1.94 1.83 1.78 1.95 2.12 2.22 2.23 1.97 2.05 2.09 2.14 2.20 1.89 1.55 1.52 1.58 1.65 1.60 1.40 1.19 1.14 1.14 1.08
1.11 1.13 1.08 0.99 0.86 0.88 0.95 1.09 1.19 1.34 1.59 1.89 2.04 1.99 1.77 1.62 1.64 1.66 1.74 1.89 1.98 1.97 1.90 1.97 2.07 2.11 2.12 1.93 1.68 1.57 1.68 1.78 1.78 1.67 1.46 1.39 1.32 1.22
0.99 1.03 1.02 1.02 1.00 1.05 1.09 1.12 1.20 1.42 1.65 1.78 1.79 1.68 1.56 1.51 1.56 1.67 1.67 1.83 1.88 1.69 1.61 1.65 1.82 1.95 2.09 1.99 1.83 1.80 1.89 2.02 1.99 1.94 1.82 1.59 1.45 1.40
0.97 1.05 1.13 1.18 1.18 1.17 1.21 1.29 1.35 1.46 1.51 1.58 1.56 1.50 1.46 1.51 1.56 1.57 1.66 1.80 1.96 1.82 1.67 1.61 1.67 1.87 1.99 1.92 1.97 1.99 2.01 2.25 2.21 2.09 2.03 1.92 1.69 1.48
0.95 1.10 1.28 1.36 1.36 1.31 1.28 1.31 1.34 1.37 1.39 1.36 1.38 1.40 1.44 1.46 1.46 1.48 1.62 1.71 1.83 1.79 1.76 1.73 1.73 1.79 1.75 1.78 1.88 1.87 1.95 2.11 2.19 2.17 2.17 2.23 2.13 1.85
1.03 1.22 1.37 1.43 1.44 1.31 1.25 1.22 1.20 1.22 1.19 1.21 1.27 1.34 1.39 1.38 1.39 1.43 1.53 1.66 1.76 1.72 1.73 1.76 1.78 1.91 1.91 1.76 1.76 1.83 1.84 2.04 2.15 2.12 2.07 2.22 2.29 2.05
1.02 1.16 1.31 1.40 1.45 1.30 1.21 1.22 1.22 1.21 1.20 1.23 1.27 1.30 1.34 1.35 1.39 1.45 1.51 1.60 1.66 1.68 1.67 1.69 1.73 1.80 1.87 1.81 1.71 1.74 1.84 1.95 2.03 2.02 2.01 2.05 2.17 2.06
1.08 1.13 1.21 1.33 1.38 1.33 1.25 1.26 1.25 1.26 1.27 1.29 1.29 1.32 1.36 1.39 1.36 1.35 1.42 1.47 1.53 1.62 1.67 1.68 1.70 1.69 1.70 1.70 1.81 1.80 1.70 1.66 1.69 1.79 1.85 1.92 1.97 1.94
1.03 1.05 1.09 1.18 1.27 1.34 1.36 1.33 1.27 1.24 1.26 1.30 1.30 1.34 1.37 1.37 1.36 1.31 1.34 1.38 1.42 1.53 1.64 1.64 1.63 1.62 1.62 1.70 1.78 1.78 1.72 1.76 1.71 1.65 1.68 1.80 1.76 1.61
1.02 1.05 1.08 1.11 1.16 1.22 1.29 1.29 1.25 1.18 1.17 1.25 1.33 1.38 1.40 1.39 1.33 1.25 1.29 1.39 1.45 1.49 1.53 1.52 1.50 1.58 1.64 1.74 1.78 1.79 1.75 1.62 1.59 1.61 1.57 1.44 1.33 1.32
1.15 1.11 1.08 1.10 1.10 1.10 1.13 1.19 1.21 1.15 1.14 1.19 1.29 1.36 1.34 1.32 1.29 1.23 1.19 1.22 1.27 1.31 1.42 1.54 1.57 1.60 1.63 1.64 1.69 1.67 1.57 1.48 1.35 1.32 1.39 1.39 1.24 1.18

GEFSNE_prec_meanprecacc_354.txt.gz
Total_Precipitation_Accumulation
2.78 2.93 2.91 2.87 2.94 2.90 2.99 3.19 3.35 3.13 2.74 2.41 2.26 2.10 2.17 2.25 2.45 2.12 2.16 2.31 2.08 1.92 1.86 1.77 1.70 1.64 1.70 1.89 1.94 1.96 2.06 2.15 2.25 2.37 2.52 2.71 2.92 3.16
2.61 2.81 2.83 2.75 2.92 3.01 3.09 3.14 3.20 3.25 2.98 2.47 2.36 2.19 2.20 2.13 2.51 2.16 2.17 2.32 2.07 1.81 1.64 1.52 1.43 1.37 1.43 1.58 1.61 1.66 1.72 1.76 1.81 1.88 2.02 2.18 2.39 2.61
2.46 2.56 2.65 2.74 2.89 2.93 3.00 3.02 3.10 3.16 3.02 2.56 2.42 2.41 2.40 2.33 2.40 2.27 2.17 2.13 1.95 1.79 1.55 1.41 1.34 1.29 1.30 1.41 1.43 1.43 1.51 1.57 1.59 1.63 1.73 1.84 1.96 2.11
2.33 2.40 2.43 2.52 2.65 2.60 2.70 2.71 2.75 2.87 2.85 2.75 2.69 2.58 2.53 2.47 2.36 2.19 1.89 1.66 1.62 1.66 1.49 1.41 1.35 1.31 1.32 1.38 1.39 1.40 1.39 1.38 1.38 1.43 1.50 1.57 1.64 1.76
2.07 2.11 2.14 2.25 2.24 2.17 2.19 2.18 2.28 2.39 2.66 2.66 2.54 2.65 2.56 2.53 2.64 2.29 2.02 1.99 1.51 1.48 1.40 1.36 1.36 1.31 1.28 1.28 1.26 1.25 1.24 1.17 1.12 1.15 1.24 1.36 1.43 1.44
1.78 1.77 1.74 1.72 1.73 1.79 1.80 1.87 2.03 2.34 2.59 2.58 2.39 2.34 2.37 2.33 2.59 2.44 2.30 2.18 1.86 1.41 1.37 1.27 1.27 1.27 1.23 1.17 1.11 1.06 1.06 1.10 1.12 1.10 1.11 1.14 1.19 1.22
1.65 1.61 1.53 1.53 1.56 1.53 1.43 1.61 1.90 2.22 2.38 2.43 2.35 2.24 2.16 2.22 2.28 2.16 2.15 2.19 2.07 1.70 1.62 1.37 1.26 1.25 1.28 1.24 1.17 1.05 0.96 0.94 0.98 1.01 1.03 1.05 1.08 1.14
1.62 1.51 1.43 1.43 1.38 1.32 1.29 1.40 1.59 1.80 2.00 2.15 2.14 2.11 2.07 2.11 2.21 2.21 2.24 2.31 2.19 1.89 1.89 1.73 1.49 1.56 1.48 1.31 1.22 1.10 1.03 0.98 0.95 0.97 1.04 1.07 1.06 1.06
1.58 1.59 1.37 1.20 1.33 1.30 1.33 1.36 1.37 1.45 1.63 1.87 1.99 1.94 2.01 2.11 2.33 2.30 2.36 2.39 2.24 2.02 2.13 2.06 1.88 1.81 1.52 1.33 1.34 1.14 1.03 1.00 0.98 0.98 1.02 1.07 1.11 1.13
1.47 1.49 1.53 1.47 1.39 1.41 1.38 1.36 1.31 1.35 1.45 1.54 1.72 1.79 1.79 1.95 2.21 2.23 2.28 2.32 2.22 2.05 2.14 2.18 1.91 1.84 1.52 1.58 1.51 1.22 1.06 1.02 0.98 0.92 0.94 1.00 1.10 1.18
1.30 1.30 1.28 1.27 1.31 1.38 1.45 1.51 1.48 1.42 1.27 1.33 1.40 1.53 1.65 1.77 1.91 2.02 2.19 2.41 2.36 2.15 2.09 2.19 2.02 1.91 1.73 1.73 1.56 1.35 1.21 1.19 1.10 0.95 0.87 0.90 0.99 1.12
1.29 1.24 1.18 1.09 1.09 1.10 1.17 1.42 1.57 1.48 1.38 1.39 1.51 1.65 1.74 1.83 1.85 1.91 2.11 2.31 2.35 2.35 2.08 2.15 2.11 2.10 2.01 1.71 1.55 1.47 1.42 1.45 1.36 1.16 0.98 0.95 1.04 1.05
1.21 1.19 1.14 1.01 0.88 0.90 1.03 1.23 1.37 1.40 1.50 1.75 1.95 1.98 1.98 1.95 1.85 1.80 1.97 2.13 2.23 2.25 1.99 2.09 2.14 2.20 2.24 1.91 1.57 1.54 1.59 1.66 1.61 1.41 1.20 1.15 1.16 1.10
1.18 1.17 1.12 1.03 0.89 0.90 0.98 1.12 1.22 1.35 1.60 1.90 2.05 2.00 1.78 1.63 1.65 1.67 1.75 1.90 1.99 1.99 1.93 2.00 2.11 2.18 2.18 1.95 1.69 1.59 1.70 1.80 1.80 1.69 1.48 1.41 1.34 1.23
1.04 1.06 1.04 1.04 1.03 1.06 1.11 1.14 1.23 1.43 1.66 1.79 1.80 1.69 1.57 1.52 1.57 1.68 1.68 1.83 1.89 1.72 1.64 1.68 1.86 2.00 2.14 2.02 1.85 1.81 1.91 2.04 2.01 1.97 1.85 1.62 1.47 1.41
1.02 1.08 1.16 1.21 1.20 1.19 1.22 1.30 1.36 1.47 1.53 1.60 1.58 1.52 1.48 1.53 1.58 1.58 1.67 1.81 1.97 1.85 1.71 1.65 1.70 1.91 2.02 1.95 1.98 2.00 2.02 2.26 2.22 2.11 2.06 1.96 1.72 1.50
1.00 1.13 1.31 1.39 1.39 1.33 1.29 1.31 1.35 1.39 1.41 1.37 1.39 1.42 1.48 1.50 1.50 1.51 1.64 1.73 1.85 1.82 1.80 1.77 1.77 1.84 1.79 1.81 1.90 1.89 1.96 2.12 2.21 2.19 2.20 2.27 2.17 1.89
1.09 1.26 1.40 1.46 1.47 1.33 1.27 1.23 1.22 1.24 1.21 1.22 1.28 1.36 1.42 1.41 1.42 1.46 1.58 1.70 1.79 1.76 1.78 1.81 1.84 1.95 1.94 1.79 1.79 1.86 1.86 2.06 2.18 2.16 2.11 2.26 2.34 2.09
1.06 1.18 1.33 1.42 1.47 1.32 1.23 1.23 1.23 1.22 1.22 1.25 1.28 1.31 1.36 1.39 1.44 1.50 1.56 1.66 1.72 1.74 1.73 1.74 1.77 1.83 1.89 1.83 1.74 1.78 1.87 1.99 2.06 2.05 2.05 2.09 2.21 2.10
1.11 1.16 1.24 1.35 1.40 1.34 1.27 1.27 1.27 1.27 1.28 1.31 1.31 1.34 1.38 1.42 1.40 1.40 1.46 1.50 1.57 1.68 1.73 1.73 1.74 1.73 1.73 1.73 1.83 1.83 1.73 1.68 1.71 1.81 1.87 1.96 2.01 1.97
1.07 1.09 1.12 1.21 1.29 1.35 1.38 1.34 1.28 1.26 1.28 1.33 1.34 1.37 1.39 1.39 1.38 1.33 1.35 1.39 1.44 1.56 1.67 1.68 1.68 1.67 1.65 1.73 1.80 1.80 1.75 1.78 1.73 1.67 1.71 1.83 1.79 1.63
1.05 1.08 1.11 1.13 1.18 1.23 1.30 1.30 1.25 1.20 1.19 1.27 1.36 1.41 1.42 1.41 1.34 1.27 1.30 1.40 1.47 1.51 1.56 1.56 1.54 1.61 1.67 1.76 1.80 1.82 1.77 1.63 1.61 1.63 1.59 1.46 1.35 1.34
1.16 1.13 1.09 1.11 1.11 1.11 1.14 1.20 1.21 1.16 1.16 1.22 1.31 1.37 1.35 1.34 1.30 1.24 1.21 1.24 1.28 1.33 1.45 1.57 1.60 1.63 1.65 1.66 1.71 1.69 1.59 1.49 1.37 1.34 1.41 1.42 1.28 1.21